Flag for Malaysia Weather past 2 weeks in Kuching, Malaysia

Now
77 °F

Broken clouds.


Feels Like: 78 °F
Forecast: 78 / 86 °F
Wind: 3 mph from Southeast

Location: Kuching Airport

Current Time: Jul 31, 2015 at 9:17:48 AM

Latest Report: Jul 31, 2015 at 8:30 AM


Visibility: 4 mi

Pressure: 29.86 "Hg

Humidity: 94%

Dew point: 75 °F

Location of KuchingLocation

Historic Weather in Kuching — Graph

°F

Kuching temperature yesterday

Maximum temperature yesterday: 93 °F (at 4:00 PM)
Minimum temperature yesterday: 75 °F (at 3:30 AM)
Average temperature yesterday: 82 °F

Past Weeks' High & Low Weather Summary

 TemperatureHumidityPressure
High95 °F (Jul 17, 2:00 PM)100% (Jul 17, 4:30 AM)30.01 "Hg (Jul 17, 4:30 AM)
Low72 °F (Jul 23, 4:00 AM)52% (Jul 21, 4:30 PM)29.71 "Hg (Jul 16, 4:00 PM)
Average81 °F84%29.85 "Hg
* Reported Jul 16 8:00 AM — Jul 31 8:00 AM, Kuching, Weather by CustomWeather, © 2015

Note: Actual official high and low records may vary slightly from our data, if they occured in-between our weather recording intervals... More about our weather records

Advertising

Kuching weather history for previous 24 hours

 ConditionsComfort  
Time TempWeatherWind HumidityBarometerVisibility
8:00 AM
Fri, Jul 31
77 °FBroken clouds.5 mph94%29.86 "Hg4 mi
7:30 AM75 °FBroken clouds.3 mph100%29.86 "Hg4 mi
7:00 AM75 °FBroken clouds.1 mph100%29.83 "HgN/A
6:30 AM75 °FLight rain. Partly cloudy.3 mph100%29.83 "HgN/A
6:00 AM75 °FLight rain. Partly cloudy.No wind100%29.83 "Hg5 mi
5:30 AM75 °FLight rain. Partly cloudy.2 mph100%29.83 "Hg5 mi
5:00 AM75 °FThunderstorms. Partly cloudy.3 mph100%29.83 "Hg5 mi
4:30 AM75 °FThunderstorms. Partly cloudy.1 mph100%29.83 "Hg5 mi
4:00 AM75 °FThunderstorms. Partly cloudy.6 mph94%29.83 "Hg5 mi
3:30 AM77 °FThunderstorms. Partly cloudy.7 mph94%29.83 "Hg5 mi
3:00 AM75 °FThunderstorms. Partly cloudy.5 mph100%29.83 "HgN/A
2:30 AM77 °FThunderstorms. Partly cloudy.5 mph94%29.83 "Hg5 mi
2:00 AM75 °FLight rain. Partly cloudy.6 mph100%29.86 "Hg5 mi
1:30 AM77 °FLight rain. Partly cloudy.5 mph94%29.86 "Hg2 mi
1:00 AM77 °FLight rain. Partly cloudy.12 mph94%29.86 "Hg5 mi
12:30 AM79 °FPassing clouds.3 mph89%29.86 "HgN/A
12:00 AM79 °FPartly cloudy.3 mph89%29.89 "HgN/A
11:30 PM
Thu, Jul 30
79 °FPassing clouds.3 mph89%29.89 "HgN/A
11:00 PM79 °FPassing clouds.3 mph89%29.89 "HgN/A
10:30 PM79 °FPassing clouds.7 mph89%29.86 "HgN/A
10:00 PM79 °FPassing clouds.3 mph89%29.86 "HgN/A
9:30 PM81 °FPassing clouds.6 mph84%29.86 "HgN/A
9:00 PM81 °FPassing clouds.5 mph84%29.86 "HgN/A
8:30 PM82 °FPartly cloudy.6 mph79%29.86 "HgN/A
8:00 PM82 °FPassing clouds.7 mph79%29.83 "HgN/A
7:30 PM84 °FPassing clouds.9 mph74%29.80 "HgN/A
7:00 PM84 °FPassing clouds.10 mph74%29.80 "HgN/A
6:30 PM86 °FPartly sunny.9 mph70%29.77 "HgN/A
6:00 PM86 °FPartly sunny.10 mph70%29.77 "HgN/A
5:30 PM88 °FBroken clouds.8 mph70%29.77 "HgN/A
5:00 PM86 °FSprinkles. Broken clouds.6 mph79%29.77 "HgN/A
4:30 PM91 °FBroken clouds.3 mph59%29.77 "HgN/A
4:00 PM93 °FBroken clouds.5 mph56%29.77 "HgN/A
3:30 PM91 °FBroken clouds.6 mph56%29.77 "HgN/A
3:00 PM91 °FBroken clouds.6 mph59%29.80 "HgN/A
2:30 PM91 °FBroken clouds.6 mph59%29.80 "HgN/A
2:00 PM88 °FBroken clouds.9 mph66%29.83 "HgN/A
1:30 PM86 °FBroken clouds.9 mph70%29.83 "HgN/A
1:00 PM88 °FBroken clouds.6 mph66%29.86 "HgN/A
12:30 PM88 °FBroken clouds.5 mph66%29.86 "HgN/A
12:00 PM88 °FBroken clouds.5 mph66%29.89 "HgN/A
11:30 AM90 °FBroken clouds.2 mph59%29.89 "HgN/A
11:00 AM86 °FBroken clouds.1 mph70%29.89 "HgN/A
10:30 AM86 °FBroken clouds.1 mph70%29.89 "HgN/A
10:00 AM86 °FBroken clouds.3 mph70%29.92 "HgN/A
9:30 AM84 °FPartly sunny.2 mph74%29.92 "HgN/A
9:00 AM82 °FPartly sunny.3 mph79%29.89 "HgN/A
Weather by CustomWeather, © 2015

See weather overviewHow to use our weather pages